TITAN 3C TRANSTAGE DEB, 26778

Orbit data source: Space-Track

TITAN 3C TRANSTAGE DEB, 26778 is space debris in HEO originally from a launch on Tue, 21 Dec 1965 UTC launched from the Air Force Eastern Test Range (AFETR). Debris objects in space refer to the collection of defunct objects orbiting the Earth. Examples of debris include non-operational satellites, rocket bodies, and fragments generated from explosions, collisions, or faulty payload assembly.

Loading next visibility...
Identifier
26778, 1965-108AW
Orbit
HEO
Country
Flag of USUS
Related business
Manufacturer
Unknown
Mission
Spacecraft
Bus & Motor
Unknown
Mass
Unknown
Launch date (UTC)
1965-12-21 (60 years ago)
Launch vehicle
Unknown
Launch site
Air Force Eastern Test Range (AFETR)
Object type
Payload
Rocket body
Debris
Shape & HBR
Unknown shape, 0.2 m
Radar Cross Section
Medium (>0.1 m² and <1 m²)

Expand to show TLE details & history
Last TLE update: 3 days ago

TLE from 3 days ago
0 TITAN 3C TRANSTAGE DEB
1 26778U 65108AW  26117.64744425  .00000065  00000-0  14786-2 0  9992
2 26778  27.8405  93.9443 6772976 202.6273 355.6308  2.65421368111512
Epoch: 2026-04-27T15:32Z
TLE epoch observation values (Epoch: 2026-04-27T15:32:19.183Z)
Latitude
3.12188°
Longitude
179.28003°
Altitude
1,138.774 km
Speed
9.379 km/s
True Right ascension
17h 51m 58s
True Declination
3° 06' 15"
Sunlit
Object was in full shadow at epoch
Visualization orbit readout
Latitude
Unknown
Longitude
Unknown
Altitude
Unknown
Speed
Unknown
Apparent Right ascension
Unknown
Apparent Declination
Unknown
Sunlit
N/A
Visualization observer readout
Local Sidereal Time
18:35:55
Azimuth
Unknown
Elevation
Unknown
Doppler factor
Unknown
Orbital elements
Apogee altitude
30,586.65 km
Perigee altitude
733.675 km
Semi-major axis
22,038.3 km
Eccentricity
0.6773
Inclination
27.8405°
RAAN
93.9443°
Arg. of periapsis
202.6273°
True anomaly
330.2513°
Mean anomaly
355.6308°
Eccentric anomaly
346.71004°
Mean motion
0.6634 °/min
Orbital period
542.66 mins
BSTAR
0.0014786
Loading maneuver chart data...
Computing Atmospheric mass density...

Documentation

Showing up to 5 results
|